Terminal Aerodrome Forecast
Issued by NWS El Paso, TX

Home | Current Version | Previous Version | Text Only | Print | Product List | Glossary On
Versions: 1 2 3 4 5 6 7 8 9 10 11 12 13
812
FTUS44 KEPZ 212335
TAFELP
TAF
KELP 212335Z 2200/2224 29020G27KT P6SM FEW080
     FM220900 30012KT P6SM SKC
     FM221400 32006KT P6SM SCT250=

USA.gov is the U.S. government's official web portal to all federal, state and local government web resources and services.